This is the latest recevied weather packets stored in our database for station/object SV9TNF-52. If no packets are shown the sender has not sent any weather packets the latest 10 day(s).
| Time | Temp. | Humidity | Pressure | Rain* | Wind** | Luminosity | Snow |
|---|---|---|---|---|---|---|---|
| 1788276800 | 29.44° C | 55% | 1019.3 hPa | 0 mm | 4.02 m/s, 44° | - | - |
| 1788276500 | 29.44° C | 56% | 1019.3 hPa | 0 mm | 2.68 m/s, 343° | - | - |
| 1788276200 | 29.44° C | 55% | 1019.3 hPa | 0 mm | 5.36 m/s, 84° | - | - |
| 1788275900 | 29.44° C | 56% | 1019.3 hPa | 0 mm | 4.92 m/s, 229° | - | - |
| 1788275600 | 30° C | 54% | 1019.3 hPa | 0 mm | 2.68 m/s, 34° | - | - |
| 1788275300 | 30° C | 54% | 1019.3 hPa | 0 mm | 2.68 m/s, 259° | - | - |
| 1788275000 | 30.56° C | 53% | 1019.3 hPa | 0 mm | 5.81 m/s, 21° | - | - |
| 1788274699 | 30.56° C | 54% | 1019.3 hPa | 0 mm | 3.13 m/s, 275° | - | - |
| 1788274399 | 30° C | 55% | 1019.3 hPa | 0 mm | 2.24 m/s, 235° | - | - |
| 1788274099 | 31.11° C | 51% | 1019.3 hPa | 0 mm | 4.02 m/s, 323° | - | - |
| 1788273799 | 31.67° C | 50% | 1019.3 hPa | 0 mm | 1.34 m/s, 14° | - | - |
| 1788273499 | 31.67° C | 49% | 1019.3 hPa | 0 mm | 2.68 m/s, 279° | - | - |
| 1788273199 | 31.67° C | 50% | 1019.3 hPa | 0 mm | 2.68 m/s, 275° | - | - |
| 1788272899 | 31.67° C | 50% | 1019.3 hPa | 0 mm | 3.58 m/s, 359° | - | - |
| 1788272599 | 31.11° C | 51% | 1019.3 hPa | 0 mm | 0.45 m/s, 199° | - | - |
| 1788272298 | 30.56° C | 52% | 1019.3 hPa | 0 mm | 2.68 m/s, 20° | - | - |
| 1788271998 | 30° C | 53% | 1019.3 hPa | 0 mm | 4.47 m/s, 206° | - | - |
| 1788271698 | 30.56° C | 52% | 1019.3 hPa | 0 mm | 7.6 m/s, 338° | - | - |
| 1788271398 | 30.56° C | 52% | 1019.3 hPa | 0 mm | 1.34 m/s, 158° | - | - |
| 1788271098 | 29.44° C | 53% | 1019.3 hPa | 0 mm | 4.92 m/s, 332° | - | - |
| 1788270798 | 28.89° C | 54% | 1019.3 hPa | 0 mm | 8.05 m/s, 97° | - | - |
| 1788270498 | 28.89° C | 55% | 1019.3 hPa | 0 mm | 13.41 m/s, 33° | - | - |
| 1788270198 | 29.44° C | 55% | 1019.3 hPa | 0 mm | 7.6 m/s, 9° | - | - |
| 1788269898 | 29.44° C | 55% | 1019.3 hPa | 0 mm | 7.6 m/s, 72° | - | - |
| 1788269597 | 29.44° C | 52% | 1019.3 hPa | 0 mm | 5.36 m/s, 12° | - | - |
* Rain latest hour (hover to see other rain measurements)
** Current wind speed in m/s (hover to see current wind gust speed)